Location: Newark
(49.8969°N, 3.3422°E)
Time: 00:05:03
(UTC+00:00)

A-11 Canister half - Pass Details

Date: 27 January 2020
Orbit: 1517 x 1683 km, 47.2° (Epoch: 24 February)

Event Time Altitude Azimuth Distance (km) Brightness Sun altitude
Exits shadow 06:17:51 12° 270° (W) 3,540 10.3 -11.2°
Maximum altitude 06:23:36 21° 229° (SW) 2,890 10.2 -10.3°
Drops below altitude 10° 06:30:04 10° 184° (S) 3,713 11.2 -9.3°
Sets 06:34:05 0° 169° (S) 4,716 12.0 -8.7°
